| time (UTC) | temp C | wind direction | speed KPH | gust KPH | rain 1hr cm | rain 24hr cm | rain mn cm | humidity % | barometer mb |
| 20260509173343 | 16 | 110 | 3.2 | 4.8 | 0.00 | 0.00 | 0.00 | 72 | 996.8 |
| 20260509172315 | 16 | 114 | 4.8 | 4.8 | 0.00 | 0.00 | 0.00 | 72 | 997.1 |
| 20260509171313 | 16 | 115 | 1.6 | 3.2 | 0.00 | 0.00 | 0.00 | 71 | 997.0 |
| 20260509170313 | 16 | 75 | 1.6 | 1.6 | 0.00 | 0.00 | 0.00 | 73 | 997.3 |
| 20260509165213 | 15 | 19 | 1.6 | 1.6 | 0.00 | 0.00 | 0.00 | 73 | 997.2 |
| 20260509164144 | 15 | 39 | 3.2 | 3.2 | 0.00 | 0.00 | 0.00 | 74 | 997.1 |
| 20260509163114 | 15 | 114 | 1.6 | 1.6 | 0.00 | 0.00 | 0.00 | 75 | 997.1 |
| 20260509162015 | 15 | 0.0 | 0.0 | 0.00 | 0.00 | 0.00 | 75 | 997.2 | |
| 20260509161043 | 14 | 114 | 1.6 | 1.6 | 0.00 | 0.00 | 0.00 | 74 | 997.4 |
| 20260509160047 | 15 | 114 | 0.0 | 1.6 | 0.00 | 0.00 | 0.00 | 76 | 997.5 |
| 20260509155012 | 14 | 114 | 1.6 | 1.6 | 0.00 | 0.00 | 0.00 | 75 | 997.5 |
| 20260509153944 | 15 | 92 | 3.2 | 4.8 | 0.00 | 0.00 | 0.00 | 75 | 997.3 |
| 20260509152914 | 15 | 92 | 1.6 | 1.6 | 0.00 | 0.00 | 0.00 | 75 | 997.3 |
| 20260509151844 | 15 | 83 | 3.2 | 4.8 | 0.00 | 0.00 | 0.00 | 78 | 997.2 |
| 20260509150813 | 14 | 96 | 1.6 | 1.6 | 0.00 | 0.00 | 0.00 | 74 | 997.3 |
| 20260509145804 | 14 | 76 | 1.6 | 1.6 | 0.00 | 0.00 | 0.00 | 76 | 997.5 |
| 20260509144714 | 13 | 76 | 1.6 | 1.6 | 0.00 | 0.00 | 0.00 | 78 | 997.7 |
| 20260509143643 | 13 | 76 | 0.0 | 1.6 | 0.00 | 0.00 | 0.00 | 81 | 997.7 |
| 20260509142634 | 12 | 0.0 | 0.0 | 0.00 | 0.00 | 0.00 | 81 | 997.5 | |
| 20260509141544 | 12 | 0.0 | 0.0 | 0.00 | 0.00 | 0.00 | 82 | 997.7 | |
| 20260509140533 | 12 | 0.0 | 0.0 | 0.00 | 0.00 | 0.00 | 85 | 997.6 | |
| 20260509135444 | 12 | 0.0 | 0.0 | 0.00 | 0.00 | 0.00 | 86 | 997.5 | |
| 20260509134413 | 12 | 77 | 0.0 | 1.6 | 0.00 | 0.00 | 0.00 | 86 | 997.3 |
| 20260509133345 | 12 | 77 | 0.0 | 1.6 | 0.00 | 0.00 | 0.00 | 87 | 997.4 |
| 20260509132313 | 12 | 77 | 1.6 | 1.6 | 0.00 | 0.00 | 0.00 | 87 | 997.3 |
| 20260509131244 | 12 | 0.0 | 0.0 | 0.00 | 0.00 | 0.00 | 86 | 997.6 | |
| 20260509130215 | 12 | 0.0 | 0.0 | 0.00 | 0.00 | 0.00 | 85 | 997.4 | |
| 20260509125145 | 11 | 0.0 | 0.0 | 0.00 | 0.00 | 0.00 | 85 | 997.5 | |
| 20260509124114 | 11 | 77 | 3.2 | 3.2 | 0.00 | 0.00 | 0.00 | 85 | 997.3 |
| 20260509123043 | 11 | 76 | 3.2 | 3.2 | 0.00 | 0.00 | 0.00 | 85 | 997.4 |
| 20260509122013 | 11 | 21 | 0.0 | 1.6 | 0.00 | 0.00 | 0.00 | 81 | 997.1 |
| 20260509120943 | 12 | 277 | 1.6 | 1.6 | 0.00 | 0.00 | 0.00 | 82 | 997.5 |
| 20260509115917 | 12 | 0.0 | 0.0 | 0.00 | 0.00 | 0.00 | 84 | 997.4 | |
| 20260509114843 | 12 | 0.0 | 0.0 | 0.00 | 0.00 | 0.00 | 83 | 997.5 | |
| 20260509113814 | 12 | 0.0 | 0.0 | 0.00 | 0.00 | 0.00 | 81 | 997.7 | |
| 20260509112843 | 12 | 277 | 1.6 | 1.6 | 0.00 | 0.00 | 0.00 | 79 | 997.6 |
| 20260509111843 | 12 | 277 | 0.0 | 1.6 | 0.00 | 0.00 | 0.00 | 77 | 997.6 |
| 20260509110845 | 12 | 250 | 0.0 | 1.6 | 0.00 | 0.00 | 0.00 | 77 | 997.4 |
| 20260509105844 | 12 | 0.0 | 0.0 | 0.00 | 0.00 | 0.00 | 75 | 997.4 | |
| 20260509104843 | 12 | 250 | 1.6 | 1.6 | 0.00 | 0.00 | 0.00 | 74 | 997.3 |
| 20260509103845 | 11 | 250 | 1.6 | 1.6 | 0.00 | 0.00 | 0.00 | 75 | 997.2 |
| 20260509102923 | 11 | 250 | 3.2 | 3.2 | 0.00 | 0.00 | 0.00 | 76 | 997.2 |
| 20260509102545 | 11 | 298 | 1.6 | 1.6 | 0.00 | 0.00 | 0.00 | 75 | 996.7 |
| 20260509101544 | 11 | 288 | 1.6 | 1.6 | 0.00 | 0.00 | 0.00 | 77 | 996.7 |
| 20260509100544 | 11 | 287 | 0.0 | 1.6 | 0.00 | 0.00 | 0.00 | 78 | 996.8 |
| 20260509095514 | 11 | 0.0 | 0.0 | 0.00 | 0.00 | 0.00 | 78 | 996.9 | |
| 20260509094414 | 11 | 0.0 | 0.0 | 0.00 | 0.00 | 0.00 | 78 | 996.7 | |
| 20260509093344 | 11 | 0.0 | 0.0 | 0.00 | 0.00 | 0.00 | 77 | 996.6 | |
| 20260509092345 | 11 | 0.0 | 0.0 | 0.00 | 0.00 | 0.00 | 76 | 996.7 | |
| 20260509091345 | 11 | 0.0 | 0.0 | 0.00 | 0.00 | 0.00 | 76 | 996.6 | |
| 20260509090425 | 11 | 0.0 | 0.0 | 0.00 | 0.00 | 0.00 | 76 | 996.6 | |
| 20260509085313 | 11 | 336 | 0.0 | 1.6 | 0.00 | 0.00 | 0.00 | 74 | 996.6 |
| 20260509084213 | 12 | 288 | 0.0 | 1.6 | 0.00 | 0.00 | 0.00 | 74 | 996.7 |
| 20260509083114 | 11 | 0.0 | 0.0 | 0.00 | 0.00 | 0.00 | 75 | 996.7 | |
| 20260509082014 | 12 | 0.0 | 0.0 | 0.00 | 0.00 | 0.00 | 75 | 996.7 | |
| 20260509081006 | 11 | 0.0 | 0.0 | 0.00 | 0.00 | 0.00 | 76 | 996.9 | |
| 20260509075944 | 12 | 290 | 1.6 | 1.6 | 0.00 | 0.00 | 0.00 | 75 | 997.0 |
| 20260509074914 | 12 | 0.0 | 0.0 | 0.00 | 0.00 | 0.00 | 73 | 997.1 | |
| 20260509073813 | 11 | 356 | 0.0 | 1.6 | 0.00 | 0.00 | 0.00 | 72 | 997.0 |
| 20260509072814 | 11 | 0.0 | 0.0 | 0.00 | 0.00 | 0.00 | 74 | 996.9 | |
| 20260509071815 | 11 | 357 | 1.6 | 1.6 | 0.00 | 0.00 | 0.00 | 75 | 996.9 |
| 20260509070843 | 11 | 0.0 | 0.0 | 0.00 | 0.00 | 0.00 | 77 | 997.0 | |
| 20260509065843 | 11 | 0.0 | 0.0 | 0.00 | 0.00 | 0.00 | 79 | 996.8 | |
| 20260509064843 | 11 | 0.0 | 0.0 | 0.00 | 0.00 | 0.00 | 78 | 996.8 | |
| 20260509063843 | 11 | 261 | 0.0 | 1.6 | 0.00 | 0.00 | 0.00 | 79 | 997.0 |
| 20260509062844 | 11 | 0.0 | 0.0 | 0.00 | 0.00 | 0.00 | 79 | 997.0 | |
| 20260509061844 | 11 | 0.0 | 0.0 | 0.00 | 0.00 | 0.00 | 79 | 997.2 | |
| 20260509060846 | 11 | 261 | 0.0 | 1.6 | 0.00 | 0.00 | 0.00 | 78 | 997.1 |
| 20260509055845 | 11 | 0.0 | 0.0 | 0.00 | 0.00 | 0.00 | 77 | 997.1 | |
| 20260509054837 | 11 | 261 | 1.6 | 1.6 | 0.00 | 0.00 | 0.00 | 78 | 997.3 |
| 20260509053715 | 11 | 261 | 0.0 | 1.6 | 0.00 | 0.00 | 0.00 | 76 | 997.4 |
| 20260509052643 | 11 | 0.0 | 0.0 | 0.00 | 0.00 | 0.00 | 75 | 997.5 | |
| 20260509051644 | 11 | 0.0 | 0.0 | 0.00 | 0.00 | 0.00 | 75 | 997.5 | |
| 20260509050645 | 12 | 0.0 | 0.0 | 0.00 | 0.00 | 0.00 | 76 | 997.3 | |
| 20260509045612 | 11 | 0.0 | 0.0 | 0.00 | 0.00 | 0.00 | 77 | 997.4 | |
| 20260509044704 | 12 | 261 | 1.6 | 1.6 | 0.00 | 0.00 | 0.00 | 78 | 997.2 |
| 20260509043645 | 11 | 261 | 1.6 | 1.6 | 0.00 | 0.00 | 0.00 | 79 | 997.3 |
| 20260509042643 | 11 | 0.0 | 0.0 | 0.00 | 0.00 | 0.00 | 78 | 997.1 | |
| 20260509041643 | 12 | 261 | 1.6 | 1.6 | 0.00 | 0.00 | 0.00 | 77 | 997.1 |
| 20260509040614 | 12 | 261 | 0.0 | 1.6 | 0.00 | 0.00 | 0.00 | 77 | 997.3 |
| 20260509035603 | 12 | 261 | 0.0 | 1.6 | 0.00 | 0.00 | 0.00 | 75 | 997.5 |
| 20260509034514 | 12 | 0.0 | 0.0 | 0.00 | 0.00 | 0.00 | 75 | 997.8 | |
| 20260509033443 | 12 | 0.0 | 0.0 | 0.00 | 0.00 | 0.00 | 74 | 997.6 | |
| 20260509032433 | 12 | 261 | 1.6 | 1.6 | 0.00 | 0.00 | 0.00 | 73 | 997.6 |
| 20260509031345 | 13 | 0.0 | 0.0 | 0.00 | 0.00 | 0.00 | 72 | 997.7 | |
| 20260509030314 | 13 | 0.0 | 0.0 | 0.00 | 0.00 | 0.00 | 71 | 997.6 | |
| 20260509025243 | 13 | 0.0 | 0.0 | 0.00 | 0.00 | 0.00 | 71 | 997.8 | |
| 20260509024214 | 13 | 261 | 1.6 | 3.2 | 0.00 | 0.00 | 0.00 | 71 | 997.8 |
| 20260509023204 | 14 | 261 | 1.6 | 1.6 | 0.00 | 0.00 | 0.00 | 68 | 997.8 |
| 20260509022114 | 14 | 295 | 3.2 | 3.2 | 0.00 | 0.00 | 0.00 | 66 | 997.9 |
| 20260509021045 | 13 | 296 | 1.6 | 3.2 | 0.00 | 0.00 | 0.00 | 71 | 997.9 |
| 20260509020016 | 13 | 0.0 | 0.0 | 0.00 | 0.00 | 0.00 | 68 | 997.9 | |
| 20260509014944 | 13 | 0.0 | 0.0 | 0.00 | 0.00 | 0.00 | 71 | 997.8 | |
| 20260509013914 | 13 | 0.0 | 0.0 | 0.00 | 0.00 | 0.00 | 69 | 997.8 | |
| 20260509012843 | 14 | 0.0 | 0.0 | 0.00 | 0.00 | 0.00 | 69 | 997.7 | |
| 20260509011813 | 14 | 0.0 | 0.0 | 0.00 | 0.00 | 0.00 | 69 | 997.8 | |
| 20260509010746 | 14 | 0.0 | 0.0 | 0.00 | 0.00 | 0.00 | 70 | 997.8 | |
| 20260509005716 | 14 | 296 | 1.6 | 1.6 | 0.00 | 0.00 | 0.00 | 67 | 997.4 |
| 20260509004706 | 15 | 296 | 1.6 | 1.6 | 0.00 | 0.00 | 0.00 | 65 | 997.5 |
| 20260509003614 | 15 | 0.0 | 0.0 | 0.00 | 0.00 | 0.00 | 62 | 997.6 | |
| 20260509002546 | 15 | 0.0 | 0.0 | 0.00 | 0.00 | 0.00 | 57 | 997.4 | |
| 20260509001513 | 15 | 296 | 3.2 | 3.2 | 0.00 | 0.00 | 0.00 | 59 | 997.2 |
| 20260509000443 | 16 | 341 | 0.0 | 1.6 | 0.00 | 0.00 | 0.00 | 55 | 997.0 |
| 20260508235415 | 16 | 341 | 0.0 | 1.6 | 0.00 | 0.00 | 0.00 | 52 | 997.0 |
| 20260508234404 | 17 | 0.0 | 0.0 | 0.00 | 0.00 | 0.00 | 47 | 997.1 | |
| 20260508233334 | 17 | 0.0 | 0.0 | 0.00 | 0.00 | 0.00 | 46 | 996.7 | |
| 20260508232244 | 17 | 0.0 | 0.0 | 0.00 | 0.00 | 0.00 | 44 | 996.9 | |
| 20260508231213 | 18 | 0.0 | 0.0 | 0.00 | 0.00 | 0.00 | 41 | 996.8 | |
| 20260508230224 | 18 | 0.0 | 0.0 | 0.00 | 0.00 | 0.00 | 40 | 996.8 | |
| 20260508225122 | 18 | 0.0 | 0.0 | 0.00 | 0.00 | 0.00 | 41 | 996.9 | |
| 20260508224044 | 18 | 0.0 | 0.0 | 0.00 | 0.00 | 0.00 | 44 | 997.0 | |
| 20260508223015 | 18 | 266 | 3.2 | 3.2 | 0.00 | 0.00 | 0.00 | 48 | 996.8 |
| 20260508221950 | 18 | 0.0 | 0.0 | 0.00 | 0.00 | 0.00 | 43 | 997.1 | |
| 20260508220914 | 18 | 243 | 4.8 | 9.7 | 0.00 | 0.00 | 0.00 | 47 | 997.0 |
| 20260508215924 | 18 | 259 | 1.6 | 1.6 | 0.00 | 0.00 | 0.00 | 42 | 997.1 |
| 20260508214813 | 18 | 313 | 1.6 | 1.6 | 0.00 | 0.00 | 0.00 | 42 | 997.0 |
| 20260508213743 | 18 | 343 | 1.6 | 3.2 | 0.00 | 0.00 | 0.00 | 44 | 997.1 |
| 20260508212744 | 18 | 251 | 1.6 | 3.2 | 0.00 | 0.00 | 0.00 | 43 | 997.0 |
| 20260508211744 | 18 | 0.0 | 0.0 | 0.00 | 0.00 | 0.00 | 40 | 997.1 | |
| 20260508210744 | 18 | 17 | 0.0 | 1.6 | 0.00 | 0.00 | 0.00 | 40 | 997.4 |
| 20260508205826 | 18 | 0.0 | 0.0 | 0.00 | 0.00 | 0.00 | 42 | 997.3 | |
| 20260508204746 | 18 | 350 | 4.8 | 8.0 | 0.00 | 0.00 | 0.00 | 39 | 997.4 |
| 20260508203743 | 18 | 252 | 0.0 | 1.6 | 0.00 | 0.00 | 0.00 | 40 | 997.3 |
| 20260508202746 | 18 | 276 | 4.8 | 4.8 | 0.00 | 0.00 | 0.00 | 42 | 997.5 |
| 20260508201806 | 18 | 256 | 1.6 | 3.2 | 0.00 | 0.00 | 0.00 | 37 | 997.6 |
| 20260508200743 | 20 | 271 | 11.3 | 24.1 | 0.00 | 0.00 | 0.00 | 35 | 997.6 |
| 20260508195744 | 20 | 348 | 6.4 | 8.0 | 0.00 | 0.00 | 0.00 | 39 | 997.7 |
| 20260508194744 | 20 | 214 | 8.0 | 11.3 | 0.00 | 0.00 | 0.00 | 40 | 997.7 |
| 20260508193745 | 20 | 295 | 3.2 | 3.2 | 0.00 | 0.00 | 0.00 | 38 | 997.7 |
| 20260508192736 | 20 | 230 | 6.4 | 9.7 | 0.00 | 0.00 | 0.00 | 38 | 998.0 |
| 20260508191713 | 20 | 346 | 3.2 | 3.2 | 0.00 | 0.00 | 0.00 | 37 | 997.8 |
| 20260508190704 | 19 | 290 | 4.8 | 4.8 | 0.00 | 0.00 | 0.00 | 38 | 998.4 |
| 20260508185643 | 19 | 311 | 3.2 | 3.2 | 0.00 | 0.00 | 0.00 | 37 | 998.3 |
| 20260508184644 | 20 | 257 | 4.8 | 8.0 | 0.00 | 0.00 | 0.00 | 36 | 998.4 |
| 20260508183645 | 20 | 226 | 8.0 | 14.5 | 0.00 | 0.00 | 0.00 | 34 | 998.6 |
| 20260508182643 | 20 | 346 | 6.4 | 8.0 | 0.00 | 0.00 | 0.00 | 36 | 998.5 |
| 20260508181643 | 20 | 243 | 12.9 | 14.5 | 0.00 | 0.00 | 0.00 | 44 | 998.8 |
| 20260508180644 | 19 | 242 | 6.4 | 9.7 | 0.00 | 0.00 | 0.00 | 38 | 998.6 |
| 20260508175644 | 18 | 229 | 4.8 | 9.7 | 0.00 | 0.00 | 0.00 | 38 | 998.7 |
| 20260508174647 | 18 | 215 | 8.0 | 11.3 | 0.00 | 0.00 | 0.00 | 41 | 999.0 |